WU Station Historical Data
 
Daily Summary for October 21, 2017 Units:  English    Metric   Both
« Previous Day
Next Day »
Daily Weekly Monthly Yearly Custom
  Current: High: Low: Average:
Temperature: 73.0 °F 84.8 °F 64.3 °F 72.4 °F
Dew Point: 71.8 °F 74.5 °F 63.1 °F 68.9 °F
Humidity: 96 % 97 % 70 % 89 %
Wind Speed: 0.0 mph 7.0 mph 0.0 mph 0.6 mph
Wind Gust: 2.0 mph 13.0 mph - -
Wind:Calm - - West
Pressure: 30.00 in 30.05 in 29.95 in -
Precipitation: 0.04 in      
Historical Graphs
 
 
Tabular Data for October 21, 2017
Time Temperature Dew Point Pressure Wind Wind Speed Wind Gust Humidity Rainfall Rate (Hourly) solar Conditions
00:02 67.7 °F 65.9 °F 30.03 in Calm     94 % 0.00 in 0 W/m2
00:07 67.7 °F 65.9 °F 30.03 in Calm     94 % 0.00 in 0 W/m2
00:12 67.7 °F 65.9 °F 30.03 in Calm     94 % 0.00 in 0 W/m2
00:17 67.9 °F 65.8 °F 30.03 in Calm     93 % 0.00 in 0 W/m2
00:22 67.8 °F 65.7 °F 30.03 in Calm     93 % 0.00 in 0 W/m2
00:27 67.8 °F 65.7 °F 30.03 in Calm     93 % 0.00 in 0 W/m2
00:32 67.7 °F 65.6 °F 30.03 in Calm     93 % 0.00 in 0 W/m2
00:37 67.6 °F 65.5 °F 30.03 in Calm     93 % 0.00 in 0 W/m2
00:42 67.5 °F 65.7 °F 30.02 in Calm     94 % 0.00 in 0 W/m2
00:47 67.4 °F 65.6 °F 30.02 in Calm     94 % 0.00 in 0 W/m2
00:52 67.4 °F 65.6 °F 30.02 in Calm     94 % 0.00 in 0 W/m2
00:57 67.3 °F 65.5 °F 30.02 in Calm     94 % 0.00 in 0 W/m2
01:02 67.3 °F 65.5 °F 30.02 in Calm     94 % 0.00 in 0 W/m2
01:07 67.2 °F 65.4 °F 30.03 in Calm     94 % 0.00 in 0 W/m2
01:12 67.2 °F 65.1 °F 30.03 in Calm     93 % 0.00 in 0 W/m2
01:17 67.1 °F 65.3 °F 30.02 in Calm     94 % 0.00 in 0 W/m2
01:22 67.0 °F 65.2 °F 30.02 in Calm     94 % 0.00 in 0 W/m2
01:27 66.9 °F 65.1 °F 30.02 in Calm     94 % 0.00 in 0 W/m2
01:32 66.9 °F 65.1 °F 30.01 in Calm     94 % 0.00 in 0 W/m2
01:37 66.9 °F 65.1 °F 30.01 in Calm   1.0 mph 94 % 0.00 in 0 W/m2
01:42 66.8 °F 65.0 °F 30.01 in Calm   1.0 mph 94 % 0.00 in 0 W/m2
01:47 66.8 °F 65.0 °F 30.01 in Calm   1.0 mph 94 % 0.00 in 0 W/m2
01:52 66.7 °F 64.9 °F 30.01 in Calm   1.0 mph 94 % 0.00 in 0 W/m2
01:57 66.7 °F 64.9 °F 30.01 in Calm     94 % 0.00 in 0 W/m2
02:02 66.6 °F 64.8 °F 30.01 in Calm     94 % 0.00 in 0 W/m2
02:07 66.6 °F 64.8 °F 30.01 in Calm     94 % 0.00 in 0 W/m2
02:08 66.6 °F 64.8 °F 30.01 in Calm     94 % 0.00 in 0 W/m2
02:13 66.6 °F 64.8 °F 30.01 in Calm   1.0 mph 94 % 0.00 in 0 W/m2
02:18 66.6 °F 64.8 °F 30.01 in Calm   1.0 mph 94 % 0.00 in 0 W/m2
02:23 66.6 °F 64.8 °F 30.01 in Calm     94 % 0.00 in 0 W/m2
02:28 66.7 °F 64.9 °F 30.01 in Calm     94 % 0.00 in 0 W/m2
02:33 66.7 °F 64.9 °F 30.01 in Calm     94 % 0.00 in 0 W/m2
02:38 66.7 °F 64.9 °F 30.01 in Calm     94 % 0.00 in 0 W/m2
02:43 66.8 °F 65.0 °F 30.01 in Calm     94 % 0.00 in 0 W/m2
02:48 66.8 °F 65.0 °F 30.01 in Calm     94 % 0.00 in 0 W/m2
02:53 66.8 °F 65.0 °F 30.01 in Calm     94 % 0.00 in 0 W/m2
02:58 66.8 °F 65.0 °F 30.01 in Calm     94 % 0.00 in 0 W/m2
03:03 66.7 °F 64.9 °F 30.01 in Calm     94 % 0.00 in 0 W/m2
03:08 66.7 °F 64.9 °F 30.01 in Calm     94 % 0.00 in 0 W/m2
03:13 66.7 °F 64.9 °F 30.01 in Calm     94 % 0.00 in 0 W/m2
03:18 66.7 °F 64.9 °F 30.01 in Calm     94 % 0.00 in 0 W/m2
03:23 66.7 °F 64.9 °F 30.01 in Calm     94 % 0.00 in 0 W/m2
03:28 66.7 °F 64.9 °F 30.01 in Calm     94 % 0.00 in 0 W/m2
03:33 66.7 °F 64.9 °F 30.01 in Calm     94 % 0.00 in 0 W/m2
03:38 66.6 °F 64.8 °F 30.01 in Calm     94 % 0.00 in 0 W/m2
03:43 66.6 °F 65.1 °F 30.01 in Calm     95 % 0.00 in 0 W/m2
03:48 66.6 °F 64.8 °F 30.01 in Calm     94 % 0.00 in 0 W/m2
03:53 66.5 °F 65.0 °F 30.00 in Calm     95 % 0.00 in 0 W/m2
03:58 66.5 °F 65.0 °F 30.00 in Calm     95 % 0.00 in 0 W/m2
04:03 66.5 °F 65.0 °F 30.00 in Calm     95 % 0.00 in 0 W/m2
04:08 66.5 °F 65.0 °F 30.00 in Calm     95 % 0.00 in 0 W/m2
04:13 66.4 °F 64.9 °F 30.01 in Calm     95 % 0.00 in 0 W/m2
04:18 66.3 °F 64.8 °F 30.00 in Calm     95 % 0.00 in 0 W/m2
04:23 66.1 °F 64.6 °F 30.01 in Calm     95 % 0.00 in 0 W/m2
04:28 66.0 °F 64.5 °F 30.01 in Calm     95 % 0.00 in 0 W/m2
04:33 65.9 °F 64.4 °F 30.01 in Calm     95 % 0.00 in 0 W/m2
04:38 65.8 °F 64.3 °F 30.01 in Calm     95 % 0.00 in 0 W/m2
04:43 65.8 °F 64.3 °F 30.01 in Calm     95 % 0.00 in 0 W/m2
04:48 65.8 °F 64.3 °F 30.00 in Calm     95 % 0.00 in 0 W/m2
04:53 65.9 °F 64.4 °F 30.00 in Calm     95 % 0.00 in 0 W/m2
04:58 65.9 °F 64.4 °F 30.00 in Calm     95 % 0.00 in 0 W/m2
05:03 65.9 °F 64.4 °F 30.00 in Calm     95 % 0.00 in 0 W/m2
05:08 65.9 °F 64.7 °F 30.00 in Calm     96 % 0.00 in 0 W/m2
05:13 65.9 °F 64.7 °F 30.00 in Calm     96 % 0.00 in 0 W/m2
05:18 65.8 °F 64.6 °F 30.00 in Calm     96 % 0.00 in 0 W/m2
05:23 65.7 °F 64.5 °F 30.01 in Calm     96 % 0.00 in 0 W/m2
05:28 65.6 °F 64.4 °F 30.01 in Calm     96 % 0.00 in 0 W/m2
05:33 65.6 °F 64.4 °F 30.00 in Calm     96 % 0.00 in 0 W/m2
05:39 65.6 °F 64.4 °F 30.01 in Calm     96 % 0.00 in 0 W/m2
05:44 65.6 °F 64.4 °F 30.01 in Calm     96 % 0.00 in 0 W/m2
05:49 65.5 °F 64.3 °F 30.01 in Calm     96 % 0.00 in 0 W/m2
05:54 65.5 °F 64.3 °F 30.01 in Calm     96 % 0.00 in 0 W/m2
05:59 65.4 °F 64.2 °F 30.01 in Calm     96 % 0.00 in 0 W/m2
06:04 65.3 °F 64.1 °F 30.01 in Calm     96 % 0.00 in 0 W/m2
06:09 65.3 °F 64.1 °F 30.01 in Calm     96 % 0.00 in 0 W/m2
06:14 65.4 °F 64.2 °F 30.02 in Calm     96 % 0.00 in 0 W/m2
06:19 65.4 °F 64.2 °F 30.02 in Calm     96 % 0.00 in 0 W/m2
06:29 65.1 °F 63.9 °F 30.02 in Calm     96 % 0.00 in 0 W/m2
06:34 65.1 °F 63.9 °F 30.02 in Calm     96 % 0.00 in 0 W/m2
06:39 65.1 °F 63.9 °F 30.02 in Calm     96 % 0.00 in 0 W/m2
06:44 65.1 °F 63.9 °F 30.02 in Calm     96 % 0.00 in 0 W/m2
06:49 65.0 °F 63.8 °F 30.03 in Calm     96 % 0.00 in 0 W/m2
06:54 64.9 °F 63.7 °F 30.03 in Calm     96 % 0.00 in 0 W/m2
06:59 64.8 °F 63.6 °F 30.03 in Calm     96 % 0.00 in 0 W/m2
07:04 64.8 °F 63.6 °F 30.03 in Calm     96 % 0.00 in 0 W/m2
07:09 64.8 °F 63.6 °F 30.03 in Calm     96 % 0.00 in 0 W/m2
07:14 64.7 °F 63.5 °F 30.03 in Calm     96 % 0.00 in 0 W/m2
07:19 64.5 °F 63.3 °F 30.03 in Calm     96 % 0.00 in 0 W/m2
07:24 64.4 °F 63.2 °F 30.03 in Calm     96 % 0.00 in 5 W/m2
07:29 64.4 °F 63.2 °F 30.03 in Calm     96 % 0.00 in 7 W/m2
07:34 64.5 °F 63.6 °F 30.03 in Calm     97 % 0.00 in 11 W/m2
07:39 64.6 °F 63.7 °F 30.04 in Calm     97 % 0.00 in 14 W/m2
07:44 64.6 °F 63.7 °F 30.04 in Calm     97 % 0.00 in 18 W/m2
07:49 64.5 °F 63.3 °F 30.04 in Calm     96 % 0.00 in 21 W/m2
07:54 64.4 °F 63.2 °F 30.04 in Calm     96 % 0.00 in 25 W/m2
07:59 64.3 °F 63.1 °F 30.04 in Calm     96 % 0.00 in 28 W/m2
08:04 64.4 °F 63.5 °F 30.04 in Calm     97 % 0.00 in 32 W/m2
08:09 64.5 °F 63.6 °F 30.04 in Calm     97 % 0.00 in 35 W/m2
08:14 64.7 °F 63.8 °F 30.04 in Calm     97 % 0.00 in 40 W/m2
08:19 64.8 °F 63.9 °F 30.04 in Calm     97 % 0.00 in 47 W/m2
08:24 64.9 °F 64.0 °F 30.04 in Calm     97 % 0.00 in 54 W/m2
08:29 65.2 °F 64.3 °F 30.04 in Calm     97 % 0.00 in 58 W/m2
08:34 65.6 °F 64.7 °F 30.04 in Calm     97 % 0.00 in 58 W/m2
08:39 66.3 °F 65.4 °F 30.04 in Calm   4.0 mph 97 % 0.00 in 62 W/m2
08:44 66.7 °F 65.8 °F 30.04 in Calm   4.0 mph 97 % 0.00 in 69 W/m2
08:49 67.0 °F 66.1 °F 30.04 in Calm     97 % 0.00 in 76 W/m2
08:54 67.4 °F 66.5 °F 30.04 in Calm     97 % 0.00 in 81 W/m2
08:59 67.8 °F 66.9 °F 30.04 in Calm     97 % 0.00 in 72 W/m2
09:05 68.1 °F 67.2 °F 30.04 in Calm     97 % 0.00 in 62 W/m2
09:10 68.4 °F 67.2 °F 30.05 in Calm     96 % 0.00 in 60 W/m2
09:15 68.6 °F 67.4 °F 30.05 in Calm     96 % 0.00 in 67 W/m2
09:18 68.8 °F 67.6 °F 30.05 in Calm     96 % 0.00 in 76 W/m2
09:28 69.2 °F 67.7 °F 30.05 in Calm     95 % 0.00 in 63 W/m2
09:33 69.4 °F 67.9 °F 30.05 in Calm     95 % 0.00 in 54 W/m2
09:38 69.6 °F 68.1 °F 30.05 in Calm     95 % 0.00 in 60 W/m2
09:43 69.9 °F 68.1 °F 30.05 in Calm     94 % 0.00 in 86 W/m2
09:48 70.3 °F 68.5 °F 30.05 in Calm     94 % 0.00 in 120 W/m2
09:53 70.6 °F 68.8 °F 30.05 in Calm     94 % 0.00 in 142 W/m2
09:58 71.1 °F 69.0 °F 30.05 in Calm   1.0 mph 93 % 0.00 in 171 W/m2
10:03 71.9 °F 69.4 °F 30.05 in Calm   4.0 mph 92 % 0.00 in 146 W/m2
10:05 72.1 °F 69.6 °F 30.05 in Calm   4.0 mph 92 % 0.00 in 172 W/m2
10:10 73.0 °F 70.2 °F 30.05 in Calm   8.0 mph 91 % 0.00 in 114 W/m2
10:15 73.8 °F 70.7 °F 30.05 in NW 2.0 mph 8.0 mph 90 % 0.00 in 128 W/m2
10:20 74.3 °F 70.5 °F 30.05 in WSW 2.0 mph 8.0 mph 88 % 0.00 in 179 W/m2
10:25 75.0 °F 70.9 °F 30.05 in Calm   8.0 mph 87 % 0.00 in 199 W/m2
10:30 75.6 °F 71.5 °F 30.05 in WSW 5.0 mph 5.0 mph 87 % 0.00 in 192 W/m2
10:35 75.9 °F 71.1 °F 30.05 in West 6.0 mph 10.0 mph 85 % 0.00 in 167 W/m2
10:40 76.0 °F 70.8 °F 30.05 in West 3.0 mph 10.0 mph 84 % 0.00 in 279 W/m2
10:45 76.6 °F 71.4 °F 30.04 in West 1.0 mph 9.0 mph 84 % 0.00 in 341 W/m2
10:50 77.5 °F 71.9 °F 30.04 in WSW 4.0 mph 9.0 mph 83 % 0.00 in 167 W/m2
10:55 77.9 °F 71.6 °F 30.05 in WNW 3.0 mph 9.0 mph 81 % 0.00 in 165 W/m2
11:00 78.0 °F 71.7 °F 30.05 in WNW 2.0 mph 8.0 mph 81 % 0.00 in 178 W/m2
11:05 78.2 °F 71.9 °F 30.05 in SSW 3.0 mph 6.0 mph 81 % 0.00 in 174 W/m2
11:10 78.0 °F 71.7 °F 30.05 in Calm   6.0 mph 81 % 0.00 in 151 W/m2
11:15 78.2 °F 71.9 °F 30.05 in WSW 3.0 mph 5.0 mph 81 % 0.00 in 236 W/m2
11:20 78.5 °F 71.8 °F 30.05 in SW 4.0 mph 5.0 mph 80 % 0.00 in 204 W/m2
11:25 78.4 °F 71.7 °F 30.05 in Calm   7.0 mph 80 % 0.00 in 179 W/m2
11:30 78.2 °F 71.5 °F 30.04 in Calm   7.0 mph 80 % 0.00 in 200 W/m2
11:35 78.1 °F 71.8 °F 30.04 in Calm   6.0 mph 81 % 0.00 in 207 W/m2
11:40 78.2 °F 71.5 °F 30.04 in Calm   6.0 mph 80 % 0.00 in 336 W/m2
11:45 78.9 °F 72.6 °F 30.04 in Calm   6.0 mph 81 % 0.00 in 838 W/m2
11:50 80.1 °F 73.0 °F 30.03 in West 1.0 mph 9.0 mph 79 % 0.00 in 842 W/m2
11:55 80.9 °F 73.0 °F 30.03 in West 2.0 mph 9.0 mph 77 % 0.00 in 816 W/m2
12:00 81.3 °F 72.6 °F 30.03 in West 4.0 mph 8.0 mph 75 % 0.00 in 715 W/m2
12:05 81.4 °F 72.7 °F 30.03 in SW 2.0 mph 9.0 mph 75 % 0.00 in 394 W/m2
12:10 81.5 °F 72.8 °F 30.03 in West 6.0 mph 9.0 mph 75 % 0.00 in 394 W/m2
12:15 81.1 °F 72.0 °F 30.03 in Calm   11.0 mph 74 % 0.00 in 394 W/m2
12:20 81.6 °F 72.9 °F 30.02 in Calm   13.0 mph 75 % 0.00 in 394 W/m2
12:25 81.7 °F 72.6 °F 30.02 in SW 6.0 mph 13.0 mph 74 % 0.00 in 810 W/m2
12:30 81.3 °F 72.2 °F 30.02 in South 1.0 mph 10.0 mph 74 % 0.00 in 520 W/m2
12:35 82.0 °F 73.3 °F 30.02 in Calm   10.0 mph 75 % 0.00 in 768 W/m2
12:40 82.5 °F 73.0 °F 30.02 in Calm   9.0 mph 73 % 0.00 in 241 W/m2
12:45 82.2 °F 73.1 °F 30.02 in Calm   8.0 mph 74 % 0.00 in 766 W/m2
12:50 82.3 °F 72.8 °F 30.01 in West 4.0 mph 10.0 mph 73 % 0.00 in 744 W/m2
12:55 82.7 °F 73.6 °F 30.01 in WSW 4.0 mph 10.0 mph 74 % 0.00 in 745 W/m2
13:00 83.4 °F 73.8 °F 30.01 in Calm   7.0 mph 73 % 0.00 in 236 W/m2
13:05 83.2 °F 73.6 °F 30.01 in NW 1.0 mph 6.0 mph 73 % 0.00 in 236 W/m2
13:10 82.5 °F 73.0 °F 30.01 in West 4.0 mph 7.0 mph 73 % 0.00 in 276 W/m2
13:15 82.1 °F 73.0 °F 30.00 in West 6.0 mph 9.0 mph 74 % 0.00 in 383 W/m2
13:16 82.1 °F 73.0 °F 30.00 in WSW 5.0 mph 9.0 mph 74 % 0.00 in 383 W/m2
13:21 82.3 °F 73.2 °F 30.00 in WSW 3.0 mph 12.0 mph 74 % 0.00 in 223 W/m2
13:26 81.8 °F 73.1 °F 30.00 in Calm   12.0 mph 75 % 0.00 in 193 W/m2
13:31 81.6 °F 72.9 °F 30.00 in WSW 5.0 mph 11.0 mph 75 % 0.00 in 178 W/m2
13:36 81.5 °F 72.8 °F 30.00 in Calm   11.0 mph 75 % 0.00 in 162 W/m2
13:41 81.7 °F 73.4 °F 29.99 in Calm   11.0 mph 76 % 0.00 in 151 W/m2
13:46 81.7 °F 73.8 °F 30.00 in Calm   6.0 mph 77 % 0.00 in 158 W/m2
13:51 81.7 °F 74.2 °F 30.00 in NNW 5.0 mph 7.0 mph 78 % 0.00 in 214 W/m2
13:56 81.9 °F 73.6 °F 29.99 in WNW 4.0 mph 8.0 mph 76 % 0.00 in 160 W/m2
14:01 82.0 °F 73.3 °F 29.99 in West 2.0 mph 11.0 mph 75 % 0.00 in 606 W/m2
14:06 82.8 °F 73.3 °F 29.99 in WSW 7.0 mph 11.0 mph 73 % 0.00 in 591 W/m2
14:11 83.5 °F 73.5 °F 29.98 in ESE 2.0 mph 10.0 mph 72 % 0.00 in 629 W/m2
14:16 83.7 °F 73.7 °F 29.98 in West 4.0 mph 9.0 mph 72 % 0.00 in 116 W/m2
14:21 83.6 °F 73.6 °F 29.98 in NNW 4.0 mph 6.0 mph 72 % 0.00 in 650 W/m2
14:26 84.0 °F 74.0 °F 29.98 in WSW 4.0 mph 6.0 mph 72 % 0.00 in 721 W/m2
14:31 84.3 °F 73.4 °F 29.97 in Calm   6.0 mph 70 % 0.00 in 174 W/m2
14:36 84.0 °F 73.6 °F 29.97 in Calm   6.0 mph 71 % 0.00 in 111 W/m2
14:41 83.8 °F 73.8 °F 29.97 in WSW 2.0 mph 7.0 mph 72 % 0.00 in 635 W/m2
14:46 84.5 °F 74.1 °F 29.97 in Calm   7.0 mph 71 % 0.00 in 613 W/m2
14:51 84.8 °F 73.9 °F 29.97 in SSW 1.0 mph 8.0 mph 70 % 0.00 in 127 W/m2
14:56 84.0 °F 73.2 °F 29.97 in WSW 5.0 mph 8.0 mph 70 % 0.00 in 102 W/m2
15:01 83.2 °F 72.8 °F 29.97 in Calm   8.0 mph 71 % 0.00 in 72 W/m2
15:06 82.7 °F 72.7 °F 29.97 in WSW 1.0 mph 8.0 mph 72 % 0.00 in 130 W/m2
15:11 82.7 °F 72.3 °F 29.96 in WSW 3.0 mph 9.0 mph 71 % 0.00 in 271 W/m2
15:16 82.9 °F 72.9 °F 29.96 in Calm   9.0 mph 72 % 0.00 in 156 W/m2
15:21 82.9 °F 72.9 °F 29.96 in Calm   4.0 mph 72 % 0.00 in 118 W/m2
15:26 82.7 °F 73.2 °F 29.96 in Calm   1.0 mph 73 % 0.00 in 65 W/m2
15:31 82.4 °F 73.3 °F 29.95 in Calm   4.0 mph 74 % 0.00 in 77 W/m2
15:36 82.2 °F 73.5 °F 29.95 in Calm   4.0 mph 75 % 0.00 in 63 W/m2
15:41 81.9 °F 73.6 °F 29.95 in WNW 1.0 mph 3.0 mph 76 % 0.00 in 63 W/m2
15:46 81.3 °F 74.2 °F 29.96 in Calm   3.0 mph 79 % 0.02 in 93 W/m2
15:51 80.0 °F 74.4 °F 29.96 in Calm   1.0 mph 83 % 0.02 in 76 W/m2
15:56 78.8 °F 74.3 °F 29.96 in Calm     86 % 0.02 in 69 W/m2
16:01 78.2 °F 74.4 °F 29.96 in Calm     88 % 0.02 in 70 W/m2
16:06 77.7 °F 74.5 °F 29.96 in Calm     90 % 0.02 in 56 W/m2
16:11 77.3 °F 74.5 °F 29.96 in Calm     91 % 0.02 in 40 W/m2
16:16 77.0 °F 74.5 °F 29.97 in Calm     92 % 0.02 in 21 W/m2
16:21 76.8 °F 74.3 °F 29.97 in Calm     92 % 0.02 in 23 W/m2
16:26 76.5 °F 74.3 °F 29.97 in Calm     93 % 0.02 in 14 W/m2
16:31 76.2 °F 74.0 °F 29.97 in Calm     93 % 0.02 in 12 W/m2
16:36 76.0 °F 73.8 °F 29.97 in Calm     93 % 0.02 in 11 W/m2
16:41 75.7 °F 73.5 °F 29.97 in Calm     93 % 0.02 in 7 W/m2
16:46 75.4 °F 73.2 °F 29.97 in Calm     93 % 0.00 in 5 W/m2
16:51 75.2 °F 73.4 °F 29.97 in Calm     94 % 0.00 in 5 W/m2
16:56 74.9 °F 73.1 °F 29.97 in Calm     94 % 0.00 in 0 W/m2
17:01 74.8 °F 73.0 °F 29.97 in Calm     94 % 0.00 in 0 W/m2
17:06 74.6 °F 72.8 °F 29.97 in Calm     94 % 0.00 in 0 W/m2
17:11 74.5 °F 72.7 °F 29.97 in Calm     94 % 0.00 in 0 W/m2
17:16 74.4 °F 72.9 °F 29.98 in Calm     95 % 0.00 in 0 W/m2
17:21 74.2 °F 72.7 °F 29.99 in Calm     95 % 0.00 in 0 W/m2
17:26 74.2 °F 72.7 °F 29.99 in Calm     95 % 0.00 in 0 W/m2
17:31 74.1 °F 72.6 °F 29.99 in Calm     95 % 0.00 in 0 W/m2
17:36 74.0 °F 72.5 °F 29.98 in Calm     95 % 0.00 in 0 W/m2
17:41 74.0 °F 72.5 °F 29.98 in Calm     95 % 0.00 in 0 W/m2
17:46 73.9 °F 72.4 °F 29.98 in Calm     95 % 0.00 in 0 W/m2
17:56 73.7 °F 72.2 °F 29.97 in Calm     95 % 0.00 in 0 W/m2
18:01 73.6 °F 72.1 °F 29.97 in Calm     95 % 0.00 in 0 W/m2
18:06 73.6 °F 72.1 °F 29.97 in Calm     95 % 0.00 in 0 W/m2
18:11 73.5 °F 72.0 °F 29.97 in Calm     95 % 0.00 in 0 W/m2
18:16 73.5 °F 72.0 °F 29.98 in Calm     95 % 0.00 in 0 W/m2
18:21 73.6 °F 72.4 °F 29.98 in Calm     96 % 0.00 in 0 W/m2
18:26 73.9 °F 72.4 °F 29.97 in Calm   4.0 mph 95 % 0.00 in 0 W/m2
18:31 74.5 °F 72.7 °F 29.97 in West 2.0 mph 6.0 mph 94 % 0.00 in 0 W/m2
18:36 74.9 °F 72.7 °F 29.98 in Calm   6.0 mph 93 % 0.00 in 0 W/m2
18:41 74.8 °F 72.6 °F 29.98 in Calm   4.0 mph 93 % 0.00 in 0 W/m2
18:42 74.8 °F 72.6 °F 29.98 in Calm   4.0 mph 93 % 0.00 in 0 W/m2
18:47 74.7 °F 72.5 °F 29.97 in Calm   4.0 mph 93 % 0.00 in 0 W/m2
18:52 74.5 °F 72.7 °F 29.98 in Calm   1.0 mph 94 % 0.01 in 0 W/m2
18:57 74.2 °F 72.4 °F 29.98 in Calm   2.0 mph 94 % 0.01 in 0 W/m2
19:02 74.1 °F 72.3 °F 29.97 in Calm   2.0 mph 94 % 0.01 in 0 W/m2
19:07 73.9 °F 72.1 °F 29.97 in Calm     94 % 0.01 in 0 W/m2
19:12 73.7 °F 72.2 °F 29.98 in Calm   4.0 mph 95 % 0.01 in 0 W/m2
19:17 73.6 °F 72.1 °F 29.98 in Calm   4.0 mph 95 % 0.01 in 0 W/m2
19:22 73.5 °F 72.0 °F 29.98 in Calm   1.0 mph 95 % 0.01 in 0 W/m2
19:27 73.5 °F 72.0 °F 29.98 in Calm   1.0 mph 95 % 0.01 in 0 W/m2
19:32 73.4 °F 71.9 °F 29.98 in Calm   1.0 mph 95 % 0.02 in 0 W/m2
19:37 73.3 °F 71.8 °F 29.98 in Calm     95 % 0.02 in 0 W/m2
19:42 73.2 °F 71.7 °F 29.98 in Calm     95 % 0.02 in 0 W/m2
19:47 73.1 °F 71.6 °F 29.98 in Calm     95 % 0.02 in 0 W/m2
19:48 73.0 °F 71.5 °F 29.98 in Calm     95 % 0.01 in 0 W/m2
19:53 73.0 °F 71.8 °F 29.99 in Calm   2.0 mph 96 % 0.01 in 0 W/m2
19:58 73.0 °F 71.8 °F 30.00 in Calm   2.0 mph 96 % 0.01 in 0 W/m2
Meadville, Mississippi, USA
Compliments of Weather Underground - 5.25 mb